Location: Unspecified
(34.7839°N, 0.0000°E)
Time: 05:46:21
(UTC+00:00)

Oceansat - Visible Passes

Search period start: 04 April 2026 00:00
Search period end: 14 April 2026 00:00
Orbit: 706 x 711 km, 98.0° (Epoch: 29 March)

Date Brightness Start Highest point End Pass type
(mag) Time Alt. Az. Time Alt. Az. Time Alt. Az.
4 Apr 6.5 03:35:04 10° NNE 03:39:31 37° E 03:43:27 13° SSE visible
4 Apr 6.5 05:13:42 10° NNW 05:17:06 20° WNW 05:20:30 10° WSW visible
5 Apr 5.1 04:19:26 10° N 04:24:14 71° WNW 04:28:47 11° SSW visible
6 Apr 6.8 03:26:44 10° NE 03:30:57 30° E 03:35:05 10° SSE visible
6 Apr 6.3 05:04:52 10° NNW 05:08:39 24° WNW 05:12:26 10° WSW visible
7 Apr 5.1 04:10:53 10° N 04:15:43 86° W 04:20:24 11° SSW visible
8 Apr 7.2 03:18:28 10° NE 03:22:23 25° E 03:26:17 10° SSE visible
8 Apr 6.1 04:56:06 10° NNW 05:00:11 28° WNW 05:04:16 10° SW visible
9 Apr 5.2 04:02:22 10° NNE 04:07:11 77° ESE 04:11:58 10° S visible
10 Apr 7.5 03:10:15 10° NE 03:13:48 20° E 03:17:19 10° SE visible
10 Apr 5.8 04:47:23 10° N 04:51:43 35° WNW 04:56:02 10° SW visible
11 Apr 5.6 03:53:53 10° NNE 03:58:39 62° E 04:03:22 10° S visible
12 Apr 7.7 03:02:10 10° NE 03:05:12 16° E 03:08:12 10° SE visible
12 Apr 5.6 04:38:42 10° N 04:43:13 42° WNW 04:47:44 10° SW visible
13 Apr 5.9 03:45:25 10° NNE 03:50:05 50° E 03:54:44 10° S visible
